Home > Weather > Ajmān > Past weeks

Flag for United Arab Emirates Past Weather in Ajmān, Ajman, United Arab Emirates — Yesterday and Last 2 Weeks

Now
93 °F

Clear.


Feels Like: 94 °F
Forecast: 88 / 96 °F
Wind: 20 mph from West

Location: Sharjah International Airport

Current Time: Jun 1, 2016 at 12:04:56 AM

Latest Report: May 31, 2016 at 11:00 PM


Visibility: 10 mi

Pressure: 29.65 "Hg

Humidity: 36%

Dew Point: 63 °F

Location of AjmānLocation

Past Weather in Ajmān — Graph

°F

Ajmān Temperature Yesterday

Maximum temperature yesterday: 106 °F (at 1:00 PM)
Minimum temperature yesterday: 86 °F (at 5:00 AM)
Average temperature yesterday: 96 °F

High & Low Weather Summary for the Past Weeks

 TemperatureHumidityPressure
High109 °F (May 30, 1:00 PM)89% (May 24, 6:00 AM)29.71 "Hg (May 24, 6:00 AM)
Low77 °F (May 17, 6:00 AM)10% (May 30, 1:00 PM)29.53 "Hg (May 20, 5:00 PM)
Average91 °F47%29.62 "Hg
* Reported May 16 11:00 PM — May 31 11:00 PM, Ajmān, Weather by CustomWeather, © 2016

Note: Actual official high and low records may vary slightly from our data, if they occured in-between our weather recording intervals... More about our weather records

Advertising

Ajmān Weather History for the Previous 24 Hours

Scroll right to see more
 ConditionsComfort  
Time TempWeatherWind HumidityBarometerVisibility
11:00 PM
Tue, May 31
93 °FClear.20 mph36%29.65 "Hg10 mi
10:00 PM93 °FClear.16 mph39%29.65 "Hg10 mi
9:00 PM95 °FClear.17 mph32%29.62 "Hg5 mi
8:00 PM95 °FClear.22 mph30%29.62 "Hg5 mi
7:00 PM97 °FSunny.25 mph28%29.59 "Hg4 mi
6:00 PM100 °FSunny.26 mph22%29.59 "Hg10 mi
5:00 PM106 °FSunny.18 mph11%29.59 "Hg10 mi
4:00 PM106 °FSunny.23 mph13%29.59 "Hg10 mi
3:00 PM106 °FSunny.23 mph18%29.59 "Hg10 mi
2:00 PM104 °FSunny.22 mph24%29.62 "Hg10 mi
1:00 PM106 °FSunny.18 mph22%29.62 "Hg10 mi
12:00 PM104 °FSunny.17 mph20%29.62 "Hg10 mi
11:00 AM104 °FSunny.12 mph23%29.62 "Hg10 mi
10:00 AM100 °FSunny.9 mph31%29.62 "Hg10 mi
9:00 AM95 °FSunny.10 mph39%29.62 "Hg10 mi
8:00 AM91 °FSunny.12 mph41%29.62 "Hg10 mi
7:00 AM88 °FSunny.9 mph46%29.59 "Hg10 mi
6:00 AM86 °FSunny.8 mph49%29.56 "Hg10 mi
5:00 AM86 °FClear.9 mph49%29.56 "Hg10 mi
4:00 AM88 °FClear.10 mph46%29.56 "Hg10 mi
3:00 AM88 °FClear.12 mph46%29.53 "Hg10 mi
2:00 AM90 °FClear.9 mph41%29.56 "Hg10 mi
1:00 AM91 °FClear.9 mph38%29.56 "Hg10 mi
12:00 AM93 °FClear.5 mph39%29.56 "Hg10 mi
Weather by CustomWeather, © 2016

See weather overviewHow to use our weather pages